| time (UTC) | temp C | wind direction | speed KPH | gust KPH | rain 1hr cm | rain 24hr cm | rain mn cm | humidity % | barometer mb |
| 20260505002047 | 26 | 0 | 1.6 | 9.7 | 0.00 | 0.00 | 0.00 | 39 | 1008.9 |
| 20260505001558 | 26 | 281 | 3.2 | 17.7 | 0.00 | 0.00 | 0.00 | 39 | 1009.0 |
| 20260505001049 | 26 | 288 | 1.6 | 17.7 | 0.00 | 0.00 | 0.00 | 38 | 1009.0 |
| 20260505000551 | 26 | 286 | 3.2 | 17.7 | 0.00 | 0.00 | 0.00 | 37 | 1009.1 |
| 20260505000101 | 26 | 235 | 1.6 | 9.7 | 0.00 | 0.00 | 0.00 | 38 | 1009.1 |
| 20260504235549 | 26 | 296 | 0.0 | 11.3 | 0.00 | 0.00 | 0.00 | 39 | 1009.2 |
| 20260504235049 | 26 | 352 | 3.2 | 11.3 | 0.00 | 0.00 | 0.00 | 38 | 1009.1 |
| 20260504234616 | 26 | 326 | 3.2 | 9.7 | 0.00 | 0.00 | 0.00 | 38 | 1009.1 |
| 20260504234048 | 26 | 308 | 3.2 | 9.7 | 0.00 | 0.00 | 0.00 | 40 | 1009.2 |
| 20260504233548 | 26 | 317 | 1.6 | 14.5 | 0.00 | 0.00 | 0.00 | 39 | 1009.3 |
| 20260504233058 | 26 | 223 | 4.8 | 14.5 | 0.00 | 0.00 | 0.00 | 41 | 1009.3 |
| 20260504232548 | 26 | 163 | 4.8 | 12.9 | 0.00 | 0.00 | 0.00 | 40 | 1009.3 |
| 20260504232047 | 26 | 163 | 3.2 | 12.9 | 0.00 | 0.00 | 0.00 | 40 | 1009.3 |
| 20260504231559 | 26 | 203 | 3.2 | 16.1 | 0.00 | 0.00 | 0.00 | 40 | 1009.3 |
| 20260504231045 | 25 | 225 | 6.4 | 16.1 | 0.00 | 0.00 | 0.00 | 41 | 1009.4 |
| 20260504230547 | 26 | 221 | 6.4 | 11.3 | 0.00 | 0.00 | 0.00 | 41 | 1009.4 |
| 20260504230053 | 27 | 208 | 3.2 | 12.9 | 0.00 | 0.00 | 0.00 | 40 | 1009.4 |
| 20260504225549 | 26 | 155 | 3.2 | 16.1 | 0.00 | 0.00 | 0.00 | 42 | 1009.4 |
| 20260504225049 | 25 | 0 | 4.8 | 16.1 | 0.00 | 0.00 | 0.00 | 41 | 1009.4 |
| 20260504224604 | 26 | 277 | 3.2 | 16.1 | 0.00 | 0.00 | 0.00 | 40 | 1009.4 |
| 20260504224048 | 27 | 240 | 3.2 | 16.1 | 0.00 | 0.00 | 0.00 | 38 | 1009.4 |
| 20260504223549 | 27 | 165 | 3.2 | 16.1 | 0.00 | 0.00 | 0.00 | 40 | 1009.5 |
| 20260504223054 | 26 | 223 | 4.8 | 12.9 | 0.00 | 0.00 | 0.00 | 39 | 1009.5 |
| 20260504222549 | 26 | 173 | 3.2 | 12.9 | 0.00 | 0.00 | 0.00 | 39 | 1009.5 |
| 20260504222048 | 26 | 219 | 3.2 | 12.9 | 0.00 | 0.00 | 0.00 | 40 | 1009.5 |
| 20260504221604 | 26 | 0 | 4.8 | 12.9 | 0.00 | 0.00 | 0.00 | 39 | 1009.5 |
| 20260504221048 | 26 | 225 | 4.8 | 11.3 | 0.00 | 0.00 | 0.00 | 39 | 1009.6 |
| 20260504220548 | 26 | 311 | 3.2 | 12.9 | 0.00 | 0.00 | 0.00 | 37 | 1009.6 |
| 20260504220058 | 26 | 286 | 3.2 | 12.9 | 0.00 | 0.00 | 0.00 | 39 | 1009.7 |
| 20260504215546 | 26 | 317 | 1.6 | 17.7 | 0.00 | 0.00 | 0.00 | 38 | 1009.9 |
| 20260504215047 | 25 | 180 | 6.4 | 17.7 | 0.00 | 0.00 | 0.00 | 38 | 1010.0 |
| 20260504214602 | 25 | 300 | 3.2 | 12.9 | 0.00 | 0.00 | 0.00 | 38 | 1010.1 |
| 20260504214046 | 26 | 203 | 3.2 | 11.3 | 0.00 | 0.00 | 0.00 | 38 | 1010.1 |
| 20260504213545 | 26 | 281 | 1.6 | 12.9 | 0.00 | 0.00 | 0.00 | 37 | 1010.1 |
| 20260504213105 | 26 | 155 | 1.6 | 12.9 | 0.00 | 0.00 | 0.00 | 38 | 1010.1 |
| 20260504212545 | 25 | 217 | 6.4 | 16.1 | 0.00 | 0.00 | 0.00 | 41 | 1010.1 |
| 20260504212044 | 25 | 167 | 4.8 | 16.1 | 0.00 | 0.00 | 0.00 | 42 | 1010.2 |
| 20260504211604 | 25 | 117 | 3.2 | 16.1 | 0.00 | 0.00 | 0.00 | 43 | 1010.2 |
| 20260504211045 | 25 | 200 | 3.2 | 16.1 | 0.00 | 0.00 | 0.00 | 43 | 1010.2 |
| 20260504210543 | 25 | 269 | 4.8 | 12.9 | 0.00 | 0.00 | 0.00 | 43 | 1010.2 |
| 20260504205549 | 23 | 232 | 3.2 | 16.1 | 0.00 | 0.00 | 0.00 | 45 | 1010.2 |
| 20260504205051 | 25 | 225 | 3.2 | 12.9 | 0.00 | 0.00 | 0.00 | 43 | 1010.2 |
| 20260504204635 | 25 | 96 | 6.4 | 16.1 | 0.00 | 0.00 | 0.00 | 45 | 1010.3 |
| 20260504204048 | 25 | 162 | 6.4 | 16.1 | 0.00 | 0.00 | 0.00 | 43 | 1010.3 |
| 20260504203549 | 25 | 174 | 4.8 | 14.5 | 0.00 | 0.00 | 0.00 | 43 | 1010.4 |
| 20260504203053 | 25 | 157 | 4.8 | 12.9 | 0.00 | 0.00 | 0.00 | 42 | 1010.4 |
| 20260504202545 | 23 | 0 | 4.8 | 17.7 | 0.00 | 0.00 | 0.00 | 44 | 1010.4 |
| 20260504202046 | 24 | 271 | 1.6 | 17.7 | 0.00 | 0.00 | 0.00 | 44 | 1010.5 |
| 20260504201554 | 24 | 159 | 0.0 | 11.3 | 0.00 | 0.00 | 0.00 | 46 | 1010.4 |
| 20260504201046 | 24 | 157 | 4.8 | 12.9 | 0.00 | 0.00 | 0.00 | 45 | 1010.5 |
| 20260504200546 | 23 | 223 | 4.8 | 12.9 | 0.00 | 0.00 | 0.00 | 48 | 1010.4 |
| 20260504200055 | 23 | 218 | 4.8 | 14.5 | 0.00 | 0.00 | 0.00 | 49 | 1010.6 |
| 20260504195546 | 24 | 194 | 3.2 | 14.5 | 0.00 | 0.00 | 0.00 | 45 | 1010.6 |
| 20260504195046 | 23 | 134 | 4.8 | 14.5 | 0.00 | 0.00 | 0.00 | 46 | 1010.6 |
| 20260504194555 | 23 | 179 | 4.8 | 14.5 | 0.00 | 0.00 | 0.00 | 48 | 1010.5 |
| 20260504194046 | 23 | 157 | 1.6 | 17.7 | 0.00 | 0.00 | 0.00 | 48 | 1010.5 |
| 20260504193545 | 23 | 221 | 4.8 | 17.7 | 0.00 | 0.00 | 0.00 | 47 | 1010.4 |
| 20260504193050 | 22 | 188 | 6.4 | 17.7 | 0.00 | 0.00 | 0.00 | 48 | 1010.5 |
| 20260504192545 | 22 | 186 | 4.8 | 17.7 | 0.00 | 0.00 | 0.00 | 48 | 1010.4 |
| 20260504192048 | 22 | 242 | 4.8 | 17.7 | 0.00 | 0.00 | 0.00 | 48 | 1010.4 |
| 20260504191555 | 23 | 146 | 6.4 | 16.1 | 0.00 | 0.00 | 0.00 | 47 | 1010.5 |
| 20260504191046 | 23 | 156 | 6.4 | 17.7 | 0.00 | 0.00 | 0.00 | 48 | 1010.4 |
| 20260504190546 | 23 | 155 | 6.4 | 17.7 | 0.00 | 0.00 | 0.00 | 48 | 1010.5 |
| 20260504190100 | 22 | 219 | 6.4 | 16.1 | 0.00 | 0.00 | 0.00 | 49 | 1010.5 |
| 20260504185545 | 22 | 176 | 6.4 | 16.1 | 0.00 | 0.00 | 0.00 | 50 | 1010.5 |
| 20260504185048 | 22 | 225 | 4.8 | 14.5 | 0.00 | 0.00 | 0.00 | 52 | 1010.6 |
| 20260504184604 | 22 | 200 | 4.8 | 14.5 | 0.00 | 0.00 | 0.00 | 48 | 1010.5 |
| 20260504184048 | 22 | 225 | 4.8 | 16.1 | 0.00 | 0.00 | 0.00 | 49 | 1010.5 |
| 20260504183548 | 22 | 177 | 6.4 | 16.1 | 0.00 | 0.00 | 0.00 | 52 | 1010.4 |
| 20260504183058 | 22 | 192 | 6.4 | 14.5 | 0.00 | 0.00 | 0.00 | 51 | 1010.5 |
| 20260504182550 | 22 | 148 | 4.8 | 14.5 | 0.00 | 0.00 | 0.00 | 55 | 1010.5 |
| 20260504182048 | 22 | 165 | 6.4 | 12.9 | 0.00 | 0.00 | 0.00 | 55 | 1010.5 |
| 20260504181552 | 22 | 213 | 3.2 | 12.9 | 0.00 | 0.00 | 0.00 | 57 | 1010.4 |
| 20260504181048 | 22 | 165 | 3.2 | 12.9 | 0.00 | 0.00 | 0.00 | 54 | 1010.4 |
| 20260504180549 | 22 | 168 | 4.8 | 12.9 | 0.00 | 0.00 | 0.00 | 57 | 1010.4 |
| 20260504180051 | 21 | 202 | 4.8 | 12.9 | 0.00 | 0.00 | 0.00 | 57 | 1010.4 |
| 20260504175551 | 21 | 0 | 4.8 | 12.9 | 0.00 | 0.00 | 0.00 | 60 | 1010.5 |
| 20260504175048 | 21 | 207 | 1.6 | 14.5 | 0.00 | 0.00 | 0.00 | 59 | 1010.4 |
| 20260504174550 | 20 | 238 | 6.4 | 14.5 | 0.00 | 0.00 | 0.00 | 61 | 1010.5 |
| 20260504174048 | 20 | 229 | 4.8 | 12.9 | 0.00 | 0.00 | 0.00 | 61 | 1010.4 |
| 20260504173549 | 20 | 229 | 4.8 | 11.3 | 0.00 | 0.00 | 0.00 | 61 | 1010.4 |
| 20260504173053 | 20 | 261 | 1.6 | 11.3 | 0.00 | 0.00 | 0.00 | 62 | 1010.3 |
| 20260504172547 | 20 | 0 | 3.2 | 11.3 | 0.00 | 0.00 | 0.00 | 63 | 1010.3 |
| 20260504172047 | 20 | 188 | 3.2 | 11.3 | 0.00 | 0.00 | 0.00 | 63 | 1010.3 |
| 20260504171552 | 20 | 290 | 0.0 | 4.8 | 0.00 | 0.00 | 0.00 | 63 | 1010.3 |
| 20260504171048 | 20 | 300 | 0.0 | 4.8 | 0.00 | 0.00 | 0.00 | 63 | 1010.4 |
| 20260504170547 | 19 | 300 | 0.0 | 8.0 | 0.00 | 0.00 | 0.00 | 64 | 1010.4 |
| 20260504151048 | 14 | 0 | 0.0 | 3.2 | 0.00 | 0.00 | 0.00 | 80 | 1010.3 |
| 20260504150550 | 13 | 323 | 0.0 | 3.2 | 0.00 | 0.00 | 0.00 | 82 | 1010.4 |
| 20260504141047 | 11 | 0 | 0.0 | 0.0 | 0.00 | 0.00 | 0.00 | 92 | 1009.7 |
| 20260504140547 | 10 | 0 | 0.0 | 1.6 | 0.00 | 0.00 | 0.00 | 93 | 1009.8 |
| 20260504130547 | 10 | 0 | 0.0 | 0.0 | 0.00 | 0.00 | 0.00 | 92 | 1009.4 |
| 20260504110546 | 10 | 0 | 0.0 | 0.0 | 0.00 | 0.00 | 0.00 | 89 | 1009.4 |
| 20260504100545 | 11 | 0 | 0.0 | 0.0 | 0.00 | 0.00 | 0.00 | 87 | 1009.5 |
| 20260504081555 | 11 | 0 | 0.0 | 0.0 | 0.00 | 0.00 | 0.00 | 82 | 1009.3 |
| 20260504081047 | 11 | 0 | 0.0 | 0.0 | 0.00 | 0.00 | 0.00 | 82 | 1009.3 |
| 20260504080547 | 11 | 0 | 0.0 | 1.6 | 0.00 | 0.00 | 0.00 | 82 | 1009.3 |
| 20260504050548 | 16 | 0 | 0.0 | 0.0 | 0.00 | 0.00 | 0.00 | 64 | 1009.4 |
| 20260504045547 | 17 | 0 | 0.0 | 0.0 | 0.00 | 0.00 | 0.00 | 58 | 1009.5 |
| 20260504045048 | 17 | 0 | 0.0 | 0.0 | 0.00 | 0.00 | 0.00 | 58 | 1009.4 |
| 20260504044557 | 17 | 0 | 0.0 | 0.0 | 0.00 | 0.00 | 0.00 | 57 | 1009.5 |
| 20260504044048 | 17 | 0 | 0.0 | 1.6 | 0.00 | 0.00 | 0.00 | 56 | 1009.5 |
| 20260504043550 | 17 | 0 | 0.0 | 1.6 | 0.00 | 0.00 | 0.00 | 57 | 1009.5 |
| 20260504043057 | 18 | 0 | 0.0 | 0.0 | 0.00 | 0.00 | 0.00 | 56 | 1009.4 |
| 20260504042552 | 18 | 0 | 0.0 | 0.0 | 0.00 | 0.00 | 0.00 | 54 | 1009.4 |
| 20260504042048 | 18 | 0 | 0.0 | 1.6 | 0.00 | 0.00 | 0.00 | 52 | 1009.5 |
| 20260504041551 | 19 | 0 | 0.0 | 1.6 | 0.00 | 0.00 | 0.00 | 51 | 1009.4 |
| 20260504041048 | 19 | 0 | 0.0 | 1.6 | 0.00 | 0.00 | 0.00 | 50 | 1009.4 |
| 20260504040550 | 19 | 0 | 0.0 | 1.6 | 0.00 | 0.00 | 0.00 | 50 | 1009.4 |
| 20260504040055 | 20 | 0 | 0.0 | 1.6 | 0.00 | 0.00 | 0.00 | 49 | 1009.4 |
| 20260504035547 | 20 | 0 | 0.0 | 3.2 | 0.00 | 0.00 | 0.00 | 48 | 1009.3 |
| 20260504035048 | 20 | 0 | 0.0 | 3.2 | 0.00 | 0.00 | 0.00 | 47 | 1009.3 |
| 20260504034611 | 20 | 0 | 0.0 | 4.8 | 0.00 | 0.00 | 0.00 | 47 | 1009.2 |
| 20260504034047 | 20 | 0 | 0.0 | 4.8 | 0.00 | 0.00 | 0.00 | 46 | 1009.2 |
| 20260504033548 | 20 | 323 | 0.0 | 4.8 | 0.00 | 0.00 | 0.00 | 46 | 1009.2 |
| 20260504033051 | 21 | 0 | 0.0 | 1.6 | 0.00 | 0.00 | 0.00 | 45 | 1009.2 |
| 20260504032547 | 21 | 0 | 0.0 | 4.8 | 0.00 | 0.00 | 0.00 | 45 | 1009.1 |
| 20260504032050 | 21 | 0 | 0.0 | 4.8 | 0.00 | 0.00 | 0.00 | 45 | 1009.1 |
| 20260504031552 | 22 | 0 | 0.0 | 1.6 | 0.00 | 0.00 | 0.00 | 43 | 1009.0 |
| 20260504031048 | 22 | 0 | 0.0 | 1.6 | 0.00 | 0.00 | 0.00 | 42 | 1009.0 |
| 20260504030545 | 22 | 0 | 0.0 | 4.8 | 0.00 | 0.00 | 0.00 | 41 | 1009.0 |
| 20260504030051 | 22 | 0 | 0.0 | 6.4 | 0.00 | 0.00 | 0.00 | 39 | 1009.2 |
| 20260504025545 | 22 | 0 | 1.6 | 8.0 | 0.00 | 0.00 | 0.00 | 38 | 1009.3 |
| 20260504025045 | 22 | 311 | 0.0 | 9.7 | 0.00 | 0.00 | 0.00 | 38 | 1009.3 |
| 20260504024558 | 22 | 304 | 3.2 | 11.3 | 0.00 | 0.00 | 0.00 | 37 | 1009.3 |
| 20260504024046 | 23 | 295 | 3.2 | 11.3 | 0.00 | 0.00 | 0.00 | 37 | 1009.3 |
| 20260504023544 | 23 | 330 | 3.2 | 11.3 | 0.00 | 0.00 | 0.00 | 38 | 1009.3 |
| 20260504023057 | 23 | 304 | 1.6 | 11.3 | 0.00 | 0.00 | 0.00 | 38 | 1009.3 |
| 20260504022549 | 23 | 0 | 1.6 | 11.3 | 0.00 | 0.00 | 0.00 | 39 | 1009.3 |
| 20260504022045 | 23 | 292 | 3.2 | 11.3 | 0.00 | 0.00 | 0.00 | 39 | 1009.3 |
| 20260504021554 | 24 | 337 | 1.6 | 11.3 | 0.00 | 0.00 | 0.00 | 39 | 1009.3 |
| 20260504021047 | 24 | 325 | 1.6 | 11.3 | 0.00 | 0.00 | 0.00 | 40 | 1009.3 |
| 20260504020545 | 24 | 292 | 1.6 | 11.3 | 0.00 | 0.00 | 0.00 | 39 | 1009.3 |
| 20260504020048 | 24 | 266 | 1.6 | 14.5 | 0.00 | 0.00 | 0.00 | 38 | 1009.3 |
| 20260504015545 | 24 | 325 | 3.2 | 14.5 | 0.00 | 0.00 | 0.00 | 37 | 1009.3 |
| 20260504015045 | 25 | 327 | 3.2 | 14.5 | 0.00 | 0.00 | 0.00 | 37 | 1009.4 |
| 20260504014606 | 25 | 0 | 1.6 | 12.9 | 0.00 | 0.00 | 0.00 | 39 | 1009.4 |
| 20260504014046 | 25 | 225 | 0.0 | 12.9 | 0.00 | 0.00 | 0.00 | 38 | 1009.4 |
| 20260504013548 | 25 | 247 | 1.6 | 11.3 | 0.00 | 0.00 | 0.00 | 37 | 1009.4 |
| 20260504013054 | 25 | 292 | 3.2 | 12.9 | 0.00 | 0.00 | 0.00 | 39 | 1009.4 |
| 20260504012547 | 25 | 310 | 3.2 | 12.9 | 0.00 | 0.00 | 0.00 | 39 | 1009.4 |
| 20260504012047 | 26 | 255 | 3.2 | 11.3 | 0.00 | 0.00 | 0.00 | 39 | 1009.4 |
| 20260504011558 | 26 | 243 | 1.6 | 11.3 | 0.00 | 0.00 | 0.00 | 39 | 1009.5 |
| 20260504011043 | 25 | 321 | 0.0 | 12.9 | 0.00 | 0.00 | 0.00 | 40 | 1009.5 |
| 20260504010546 | 25 | 326 | 1.6 | 12.9 | 0.00 | 0.00 | 0.00 | 39 | 1009.5 |
| 20260504005545 | 26 | 337 | 1.6 | 9.7 | 0.00 | 0.00 | 0.00 | 40 | 1009.6 |
| 20260504005044 | 25 | 0 | 3.2 | 16.1 | 0.00 | 0.00 | 0.00 | 41 | 1009.8 |
| 20260504004555 | 25 | 325 | 4.8 | 16.1 | 0.00 | 0.00 | 0.00 | 40 | 1009.9 |
| 20260504004047 | 25 | 291 | 6.4 | 16.1 | 0.00 | 0.00 | 0.00 | 39 | 1010.0 |
| 20260504003545 | 25 | 302 | 3.2 | 12.9 | 0.00 | 0.00 | 0.00 | 42 | 1010.0 |
| 20260504003100 | 25 | 325 | 4.8 | 14.5 | 0.00 | 0.00 | 0.00 | 42 | 1010.0 |
| 20260504002543 | 26 | 327 | 4.8 | 14.5 | 0.00 | 0.00 | 0.00 | 40 | 1010.0 |